Location: Nashville
(36.1660°N, 86.7840°W)
Time: 03:14:45
(UTC-05:00)

AO-85 - Visible Passes

Search period start: 16 May 2022 00:00
Search period end: 26 May 2022 00:00
Orbit: 497 x 778 km, 64.8° (Epoch: 04 May)

Date Brightness Start Highest point End Pass type
(mag) Time Alt. Az. Time Alt. Az. Time Alt. Az.
16 May ? 21:44:24 10° SW 21:49:47 72° WNW 21:55:06 10° NNE visible
16 May ? 23:29:03 10° WNW 23:30:59 12° NW 23:32:53 10° NNW visible
17 May ? 20:28:10 10° S 20:32:54 32° ESE 20:37:36 10° NE visible
17 May ? 22:08:20 10° WSW 22:13:11 33° NW 22:17:58 10° NNE visible
18 May ? 05:03:20 10° NNE 05:05:33 13° NE 05:07:41 10° ENE visible
18 May ? 20:50:36 10° SSW 20:55:58 74° ESE 21:01:17 10° NNE visible
18 May ? 22:33:20 10° W 22:36:49 17° NW 22:40:15 10° N visible
19 May ? 21:14:00 10° SW 21:19:14 51° WNW 21:24:23 10° NNE visible
20 May ? 21:38:19 10° WSW 21:42:42 25° NW 21:47:01 10° N visible
21 May ? 04:32:00 10° N 04:35:08 18° NE 04:38:07 10° E visible
21 May ? 20:19:55 10° SSW 20:25:19 79° WNW 20:30:37 10° NNE visible
21 May ? 22:04:04 10° WNW 22:06:25 13° NW 22:08:45 10° NNW visible
22 May ? 04:54:24 10° NNW 04:58:41 40° NE 05:02:36 10° SE visible
22 May ? 20:43:42 10° WSW 20:48:39 36° NW 20:53:31 10° NNE visible
23 May ? 03:39:10 10° NNE 03:40:56 12° NE 03:42:39 10° ENE visible
23 May ? 21:08:30 10° W 21:12:12 19° NW 21:15:51 10° N visible
24 May ? 04:00:51 10° N 04:04:37 25° NE 04:08:06 10° ESE visible
25 May ? 04:23:32 10° NNW 04:28:00 60° ENE 04:32:03 10° SE visible
25 May ? 20:13:30 10° WSW 20:18:01 27° NW 20:22:28 10° N visible
